| time (UTC) | temp F | wind direction | speed knots | gust knots | rain 1hr in | rain 24hr in | rain mn in | humidity % | barometer mb |
| 20260506111526 | 0 | 82 | 0.9 | 7.0 | 0.00 | 0.00 | 0.00 | 1009.5 | |
| 20260506110015 | 0 | 19 | 2.6 | 7.0 | 0.00 | 0.00 | 0.00 | 1009.6 | |
| 20260506104511 | 0 | 355 | 2.6 | 7.8 | 0.00 | 0.00 | 0.00 | 1009.6 | |
| 20260506103006 | 0 | 44 | 1.7 | 7.8 | 0.00 | 0.00 | 0.00 | 1009.4 | |
| 20260506101502 | 0 | 13 | 3.5 | 10.4 | 0.00 | 0.00 | 0.00 | 1009.4 | |
| 20260506100100 | 0 | 16 | 2.6 | 8.7 | 0.00 | 0.00 | 0.00 | 1009.4 | |
| 20260506094559 | 0 | 14 | 3.5 | 12.2 | 0.00 | 0.00 | 0.00 | 1009.3 | |
| 20260506093058 | 0 | 49 | 7.0 | 16.5 | 0.00 | 0.00 | 0.00 | 1009.4 | |
| 20260506091548 | 0 | 24 | 2.6 | 7.8 | 0.00 | 0.00 | 0.00 | 1009.2 | |
| 20260506090054 | 0 | 350 | 3.5 | 7.8 | 0.00 | 0.00 | 0.00 | 1009.1 | |
| 20260506084545 | 0 | 44 | 1.7 | 7.0 | 0.00 | 0.00 | 0.00 | 1009.1 | |
| 20260506083038 | 0 | 36 | 2.6 | 9.6 | 0.00 | 0.00 | 0.00 | 1009.1 | |
| 20260506081537 | 0 | 43 | 2.6 | 11.3 | 0.00 | 0.00 | 0.00 | 1008.9 | |
| 20260506073021 | 0 | 13 | 2.6 | 5.2 | 0.00 | 0.00 | 0.00 | 1008.7 | |
| 20260506071519 | 0 | 34 | 3.5 | 7.0 | 0.00 | 0.00 | 0.00 | 1008.8 | |
| 20260506061601 | 0 | 360 | 2.6 | 7.0 | 0.00 | 0.00 | 0.00 | 1008.5 | |
| 20260506043033 | 0 | 28 | 3.5 | 7.8 | 0.00 | 0.00 | 0.00 | 1008.3 | |
| 20260506041539 | 0 | 23 | 1.7 | 6.1 | 0.00 | 0.00 | 0.00 | 1008.3 | |
| 20260506040024 | 0 | 11 | 1.7 | 5.2 | 0.00 | 0.00 | 0.00 | 1008.3 | |
| 20260506033018 | 0 | 24 | 0.9 | 7.0 | 0.00 | 0.00 | 0.00 | 1008.4 | |
| 20260506031513 | 0 | 33 | 2.6 | 7.0 | 0.00 | 0.00 | 0.00 | 1008.5 | |
| 20260506030009 | 0 | 35 | 1.7 | 6.1 | 0.00 | 0.00 | 0.00 | 1008.7 | |
| 20260506023002 | 0 | 20 | 0.9 | 5.2 | 0.00 | 0.00 | 0.00 | 1008.8 | |
| 20260506021557 | 0 | 30 | 0.9 | 6.1 | 0.00 | 0.00 | 0.00 | 1008.8 | |
| 20260506020056 | 0 | 27 | 1.7 | 5.2 | 0.00 | 0.00 | 0.00 | 1008.9 | |
| 20260506013054 | 0 | 19 | 1.7 | 7.8 | 0.00 | 0.00 | 0.00 | 1009.1 | |
| 20260506011546 | 0 | 28 | 0.9 | 9.6 | 0.00 | 0.00 | 0.00 | 1009.1 | |
| 20260506010038 | 0 | 26 | 2.6 | 7.0 | 0.00 | 0.00 | 0.00 | 1009.3 | |
| 20260506003031 | 0 | 48 | 1.7 | 7.0 | 0.00 | 0.00 | 0.00 | 1009.4 | |
| 20260506001528 | 0 | 26 | 1.7 | 7.8 | 0.00 | 0.00 | 0.00 | 1009.7 | |
| 20260506000022 | 0 | 15 | 0.9 | 5.2 | 0.00 | 0.00 | 0.00 | 1009.9 | |
| 20260505233024 | 0 | 31 | 1.7 | 5.2 | 0.00 | 0.00 | 0.00 | 1009.9 | |
| 20260505231513 | 0 | 26 | 2.6 | 6.1 | 0.00 | 0.00 | 0.00 | 1010.0 | |
| 20260505230007 | 0 | 21 | 3.5 | 7.0 | 0.00 | 0.00 | 0.00 | 1010.1 | |
| 20260505223059 | 0 | 345 | 2.6 | 6.1 | 0.00 | 0.00 | 0.00 | 1010.2 | |
| 20260505221602 | 0 | 360 | 0.9 | 7.8 | 0.00 | 0.00 | 0.00 | 1010.2 | |
| 20260505220056 | 0 | 52 | 1.7 | 9.6 | 0.00 | 0.00 | 0.00 | 1010.4 | |
| 20260505213043 | 0 | 10 | 3.5 | 7.8 | 0.00 | 0.00 | 0.00 | 1010.5 | |
| 20260505211542 | 0 | 27 | 2.6 | 7.0 | 0.00 | 0.00 | 0.00 | 1010.6 | |
| 20260505210036 | 0 | 16 | 1.7 | 7.8 | 0.00 | 0.00 | 0.00 | 1010.7 | |
| 20260505203027 | 0 | 34 | 2.6 | 6.1 | 0.00 | 0.00 | 0.00 | 1010.9 | |
| 20260505201523 | 0 | 12 | 2.6 | 6.1 | 0.00 | 0.00 | 0.00 | 1010.9 | |
| 20260505200031 | 0 | 18 | 2.6 | 7.0 | 0.00 | 0.00 | 0.00 | 1010.7 | |
| 20260505193015 | 0 | 360 | 1.7 | 7.8 | 0.00 | 0.00 | 0.00 | 1010.7 | |
| 20260505191521 | 0 | 5 | 3.5 | 9.6 | 0.00 | 0.00 | 0.00 | 1010.6 | |
| 20260505190004 | 0 | 355 | 2.6 | 7.0 | 0.00 | 0.00 | 0.00 | 1010.4 | |
| 20260505184700 | 0 | 17 | 2.6 | 8.7 | 0.00 | 0.00 | 0.00 | 1010.4 | |
| 20260505183056 | 0 | 38 | 1.7 | 7.8 | 0.00 | 0.00 | 0.00 | 1010.4 | |
| 20260505181557 | 0 | 16 | 2.6 | 8.7 | 0.00 | 0.00 | 0.00 | 1010.3 | |
| 20260505180047 | 0 | 24 | 2.6 | 7.8 | 0.00 | 0.00 | 0.00 | 1010.3 | |
| 20260505174645 | 0 | 17 | 2.6 | 7.0 | 0.00 | 0.00 | 0.00 | 1010.4 | |
| 20260505173040 | 0 | 21 | 2.6 | 5.2 | 0.00 | 0.00 | 0.00 | 1010.5 | |
| 20260505171535 | 0 | 24 | 1.7 | 9.6 | 0.00 | 0.00 | 0.00 | 1010.5 | |
| 20260505170033 | 0 | 5 | 1.7 | 6.1 | 0.00 | 0.00 | 0.00 | 1010.5 | |
| 20260505163025 | 0 | 18 | 2.6 | 6.1 | 0.00 | 0.00 | 0.00 | 1010.6 | |
| 20260505161536 | 0 | 38 | 2.6 | 7.0 | 0.00 | 0.00 | 0.00 | 1010.5 | |
| 20260505153013 | 0 | 25 | 3.5 | 7.0 | 0.00 | 0.00 | 0.00 | 1010.8 | |
| 20260505151504 | 0 | 350 | 2.6 | 7.0 | 0.00 | 0.00 | 0.00 | 1010.8 | |
| 20260505150109 | 0 | 28 | 1.7 | 5.2 | 0.00 | 0.00 | 0.00 | 1010.8 | |
| 20260505124526 | 0 | 5 | 3.5 | 7.8 | 0.00 | 0.00 | 0.00 | 1011.6 | |
| 20260505123024 | 0 | 348 | 2.6 | 7.8 | 0.00 | 0.00 | 0.00 | 1011.5 | |
| 20260505121531 | 0 | 20 | 4.3 | 7.8 | 0.00 | 0.00 | 0.00 | 1011.7 | |
| 20260505120015 | 0 | 355 | 2.6 | 7.0 | 0.00 | 0.00 | 0.00 | 1011.5 | |
| 20260505114511 | 0 | 11 | 2.6 | 7.0 | 0.00 | 0.00 | 0.00 | 1011.5 | |
| 20260505113006 | 0 | 11 | 0.0 | 7.0 | 0.00 | 0.00 | 0.00 | 1011.6 |